Regional Weather Roundup
Issued by NWS

Home | Current Version | Previous Version | Graphics & Text | Print | Product List | Glossary On
Versions: 1 2 3 4 5 6 7 8 9 10 11 12 13 14 15 16 17 18 19 20 21 22 23 24 25 26 27 28 29 30 31 32 33 34 35 36 37 38 39 40 41 42 43 44 45 46 47 48 49 50
000
ASUS43 KLOT 260406
RWRIL

ILLINOIS REGIONAL WEATHER ROUNDUP
NATIONAL WEATHER SERVICE CHICAGO/ROMEOVILLE IL
1000 PM CST THU DEC 25 2014

NOTE: "FAIR" INDICATES FEW OR NO CLOUDS BELOW 12,000 FEET WITH NO
SIGNIFICANT WEATHER AND/OR OBSTRUCTIONS TO VISIBILITY.

* THESE STATIONS ARE NOT UNDER NWS QUALITY CONTROL. THEY ALSO MAY NOT
  REPORT WEATHER SUCH AS PRECIPITATION OR FOG.

ILZ001-002-007-009-015-016-024-260500-
NORTHWEST ILLINOIS

CITY           SKY/WX    TMP DP  RH WIND       PRES   REMARKS
MOLINE         PTCLDY    40  33  76 S12       29.91S
STERLING*      FAIR      37  32  81 S5        29.96R WCI  34
SAVANNA*       PTCLDY    38  34  82 S9        29.94R WCI  32
$$

ILZ003-004-008-010-011-017-018-260500-
NORTH CENTRAL ILLINOIS

CITY           SKY/WX    TMP DP  RH WIND       PRES   REMARKS
ROCKFORD       MOCLDY    38  33  82 S16       29.97S WCI  29
FREEPORT*      PTCLDY    37  34  88 S15       29.95S WCI  28
ROCHELLE*      CLOUDY    36  33  90 S10       29.97S WCI  28
DE KALB*       CLOUDY    35  32  91 S13       29.98R WCI  26
PERU*          CLOUDY    37  34  88 S13       29.98S WCI  29
$$

ILZ005-006-012>014-019>023-260500-
NORTHEAST ILLINOIS

CITY           SKY/WX    TMP DP  RH WIND       PRES   REMARKS
CHICAGO-OHARE  CLOUDY    39  33  79 S18       30.00R WCI  30
CHICAGO-MIDWAY CLOUDY    41  33  73 S13       30.02R
AURORA         MOCLDY    38  32  79 S12       30.00R WCI  30
LANSING*       MOCLDY    37  32  84 S10       30.03R WCI  30
JOLIET*        MOCLDY    38  33  82 S7        30.02R WCI  33
WAUKEGAN       CLOUDY    40  33  76 S18       29.98R
DUPAGE AIRPORT CLOUDY    38  33  82 S10       29.99R WCI  31
KANKAKEE*      CLOUDY    38  34  84 S12G17    30.04R WCI  31
WHEELING       CLOUDY    40  33  76 S10G22    30.02R
MORRIS*        MOCLDY    37  35  93 S12       30.00R WCI  29
ROMEOVILLE*    MOCLDY    37  34  89 S13       30.01R WCI  28
NORTHERLY ISL    N/A     40  32  73 S15         N/A
$$

LMZ740>746-260500-
SOUTHERN LAKE MICHIGAN

STATION/POSITION SKY/WX   TEMP    WIND        PRES    VSBY  WAVE
                          AIR SEA DIR/SP/G                  HT/PER
                          (F)     (DEG/KT/KT) (MB)    (MI)  (FT/S)
WAUKEGAN HARBOR            41                   N/A
HARRISON CRIB              40     190/ 23/ 27   N/A
BURNHAM HARBOR             40     200/ 17/ 17   N/A
CALUMET HARBOR             39     180/ 12/ 19 1015.4R
MICHIGAN CITY              38     150/ 13/ 17   N/A
$$

ILZ025>027-034>036-040-047-049-050-058-095>099-260500-
WEST-CENTRAL ILLINOIS

CITY           SKY/WX    TMP DP  RH WIND       PRES   REMARKS
QUINCY         PTCLDY    44  31  60 S13       29.92R
GALESBURG*     MOCLDY    40  35  82 S10       29.94R
MACOMB*        MOCLDY    40  35  81 S14       29.96R
JACKSONVILLE*  PTCLDY    44  37  77 S14G21    29.97R
PITTSFIELD*    PTCLDY    45  35  68 S16G24    29.95R
$$

ILZ028>032-037-038-041>044-048-051>054-059>061-260500-
CENTRAL ILLINOIS

CITY           SKY/WX    TMP DP  RH WIND       PRES   REMARKS
PONTIAC        MOCLDY    38  35  87 S12       30.01R WCI  31
BLOOMINGTON    CLOUDY    38  35  89 S17       30.02R WCI  28
DECATUR        MOCLDY    39  33  79 S15       30.02R WCI  31
PEORIA         PTCLDY    42  34  73 S14       29.98R
LACON*         PTCLDY    40  33  75 S14G20    29.97R
LINCOLN*       FAIR      40  35  81 S8        30.01R
SPRINGFIELD    PTCLDY    42  36  79 S17G24    30.00R
TAYLORVILLE    PTCLDY    39  34  81 S16       30.01S WCI  30
$$

ILZ033-039-045-046-055>057-062-063-260500-
EAST-CENTRAL ILLINOIS

CITY           SKY/WX    TMP DP  RH WIND       PRES   REMARKS
CHAMPAIGN      PTCLDY    38  33  82 S16       30.03R WCI  29
DANVILLE*      PTCLDY    38  33  81 S13       30.03S WCI  30
RANTOUL*       MOCLDY    38  34  87 S10       30.04R WCI  31
MATTOON        CLEAR     38  33  82 S13       30.05S WCI  30
PARIS*         CLEAR     35  33  92 SE9       30.08S WCI  28
$$

ILZ079-100>102-260500-
SOUTHWEST ILLINOIS

CITY           SKY/WX    TMP DP  RH WIND       PRES   REMARKS
ALTON          PTCLDY    43  35  73 S15       30.01R
BELLEVILLE     PTCLDY    41  37  86 SE12      30.02S
CAHOKIA*       MOCLDY    44  37  76 S9        30.01R
SPARTA*        PTCLDY    42  34  74 S12       30.05S
$$

ILZ064>066-069>071-074>076-080>082-084>086-088>090-092>094-260500-
SOUTH-CENTRAL ILLINOIS

CITY           SKY/WX    TMP DP  RH WIND       PRES   REMARKS
CARBONDALE     CLEAR     41  32  70 S10       30.08R
CAIRO*         MOCLDY    46  35  66 S9        30.12R
EFFINGHAM*     CLEAR     39  31  72 SE7       30.08S WCI  34
MARION         CLEAR     43  34  70 S10       30.10R
MT. VERNON     CLEAR     41  30  65 S8        30.09R
CENTRALIA*     CLEAR     41  32  70 S10       30.06S
SALEM*         CLEAR     43  34  69 S10       30.06F
METROPOLIS*    PTCLDY    42  35  75 S7        30.12R
$$

ILZ067-068-072-073-078-083-087-091-260500-
SOUTHEAST ILLINOIS

CITY           SKY/WX    TMP DP  RH WIND       PRES   REMARKS
LAWRENCEVILLE  CLEAR     38  34  85 S13       30.12R WCI  30
FLORA*         CLEAR     37  33  84 S7        30.09R WCI  32
FAIRFIELD*     CLEAR     40  34  78 S8        30.09R
HARRISBURG*    CLEAR     36  33  90 SE6       30.12R WCI  31
ROBINSON*      CLEAR     36  32  87 S7        30.12R WCI  30
CARMI*         CLEAR     38  36  91 SE8       30.11S WCI  32
$$

ABBREVIATIONS USED IN REMARKS
   TC - TEMPERATURE IN CELSIUS
  WCI - WIND CHILL INDEX
   HX - HEAT INDEX
  VSB - VISIBILITY
$$



USA.gov is the U.S. government's official web portal to all federal, state and local government web resources and services.